Tracking 26321 objects as of 27-Nov-2022
HD Live streaming from Space Station
objects crossing your sky now

STARLINK-5173

Track STARLINK-5173 now!
10-day predictions
STARLINK-5173 is classified as:


NORAD ID: 54059
Int'l Code: 2022-136J
Perigee: 478.0 km
Apogee: 479.8 km
Inclination: 53.2 °
Period: 94.0 minutes
Semi major axis: 6849 km
RCS: Unknown
Launch date: October 20, 2022
Source: United States (US)
Launch site: AIR FORCE EASTERN TEST RANGE (AFETR)
aabbcc
Your satellite tracking list
Your tracking list is empty




NASA's NSSDC Master Catalog

Two Line Element Set (TLE):
1 54059U 22136J   22331.25001157 -.01084128  00000-0 -38559-1 0  9996
2 54059  53.2171 324.8622 0001329  73.2714 143.7540 15.31353156  6395
Source of the keplerian elements: AFSPC